sat.trackr.live / text

‹ back to catalog

STARLINK-35873

NORAD 67860 · 2026-034L

PAYLOAD ACTIVE UNKNOWN

§ Identity

Operator
Country
US
Launch date
2026-02-20
Launch site
AFETR
Launch vehicle
Mass (kg)
RCS (m²)

Purposes: comms

External: N2YO · Heavens-Above · Gunter

§ Orbital elements

Epoch: 2026-09-19T22:33:33.026976Z

Period
93.85 min
Inclination
53.1598°
Eccentricity
0.0000960
Mean motion
15.34407740 rev/d
Perigee alt
462.0 km
Apogee alt
463.3 km
Semi-major
6,840.8 km
B*
6.7535e-4
RAAN
20.0313°
Arg perigee
75.5800°
Mean anomaly
284.5309°
Rev number
3,383

§ Raw data

STARLINK-358731 67860U 26034L   26262.93996559  .00022516  00000+0  67535-3 0  99992 67860  53.1598  20.0313 0000960  75.5800 284.5309 15.34407740 33832

JSON: /api/v1/satellites/67860 · /tle

For live sub-satellite position, see the globe view (requires WebGL).

§ Visibility from observer

Set your observer location to see the next 7 days of passes ≥ 10°. The values pass through the URL so the page stays shareable.

No JS? Fill the form by hand. The geolocation button needs JavaScript.